[[{"header":{"parameterUnit":"m.s-1","parameterCategory":1,"la1":30.2991,"la2":30.254,"lo1":-89.0895,"lo2":-89.0444,"dy":0.0017,"dx":0.0017,"nx":28,"ny":28,"refTime":"2023-07-27T21:00:00:Z","depth":0,"parameterNumber":2,"parameterNumberName":"U-component_of_WINDS"},"data":[0,0,0,0,0,0,0,0,0,0,0,0,0,0,0,0,0,0,0,0,0,0,0,0,0,0,0,0,0,0,0,0,0,0,0,0,0,0,0,0,0,0,0,0,0,0,0,0,0,0,0,0,0,0,0,0,0,0,1.7085,1.7086,0,1.7125,1.7126,1.7126,1.7099,1.7097,1.7096,1.7095,1.7135,1.7137,1.714,0,0,0,0,0,0,0,0,0,0,0,0,0,1.6982,1.6984,1.7085,1.7086,1.7086,1.7125,1.7126,1.7126,1.7099,1.7097,1.7096,1.7094,1.7135,1.7137,1.714,0,0,0,0,0,0,0,0,0,0,0,0,0,1.7025,1.6985,1.7085,1.7077,1.7077,1.7125,1.7126,1.7127,1.7099,1.7097,1.7095,1.7094,1.7134,1.7137,1.714,1.7199,0,0,1.7151,1.7152,0,0,0,0,0,0,0,0,1.7023,1.7029,1.7078,1.7078,1.7077,1.7105,1.7104,1.7151,1.71,1.7091,1.7095,1.7093,1.7127,1.7131,1.7142,1.72,1.7202,1.7151,1.7153,1.7154,1.7155,0,0,0,0,0,0,0,1.702,1.7027,1.7101,1.7078,1.7078,1.7071,1.7075,1.7113,1.7119,1.7091,1.7089,1.7094,1.7126,1.7139,1.7143,1.7203,1.7151,1.7154,1.7156,1.7157,1.7308,1.731,0,0,0,0,0,0,1.7018,1.7025,1.71,1.7102,1.7045,1.7074,1.7079,1.7098,1.7118,1.7119,1.7096,1.7093,1.7134,1.7139,1.7144,1.7212,1.7154,1.7157,1.7159,1.7306,1.7308,1.7311,0,0,0,0,0,0,1.7015,1.7025,1.7098,1.7063,1.7072,1.7078,1.71,1.71,1.7112,1.7122,1.7122,1.7108,1.7133,1.7139,1.7185,1.7213,1.7159,1.7162,1.7304,1.7307,1.731,1.7348,0,0,0,0,0,0,1.7013,1.7024,1.7047,1.7064,1.7074,1.7139,1.7102,1.7102,1.7118,1.7115,1.7133,1.7135,1.7132,1.718,1.7188,1.7216,1.7165,1.7301,1.7305,1.7309,1.7344,1.7352,1.7359,0,0,0,0,0,1.7009,1.7057,1.7048,1.7057,1.7102,1.714,1.7146,1.7142,1.7121,1.7143,1.7149,1.7134,1.7209,1.7185,1.7194,1.7223,1.7299,1.7304,1.7308,1.7341,1.7351,1.7359,0,0,0,0,0,0,1.7043,1.7059,1.705,1.7104,1.7121,1.7136,1.7164,1.7153,1.7176,1.7172,1.7166,1.717,1.7217,1.7225,1.7198,1.7279,1.725,1.7257,1.7272,1.7281,1.7288,1.7285,1.7167,0,0,0,0,0,1.7057,1.7087,1.7099,1.7146,1.7155,1.7158,1.7174,1.717,1.7187,1.7194,1.7203,1.722,1.7247,1.7265,1.7291,1.7346,1.7348,1.7371,1.7378,1.7384,1.7389,1.7416,1.7425,1.7325,1.7325,1.7325,0,0,1.7086,1.7098,1.7117,1.7153,1.7165,1.7195,1.7164,1.7198,1.722,1.7199,1.7242,1.7249,1.7267,1.7317,1.734,1.7325,1.7417,1.7389,1.7394,1.7396,1.7422,1.7431,1.7439,1.7328,1.7328,1.7327,0,0,1.7153,1.7167,1.7206,1.7219,1.7238,1.724,1.7249,1.7265,1.7269,1.7312,1.7296,1.7322,1.7369,1.7382,1.7395,1.7466,1.7452,1.7474,1.7511,1.7538,1.7545,1.7552,1.7575,1.7584,1.748,1.748,1.748,0,1.7187,1.7232,1.7227,1.7262,1.7277,1.7259,1.7298,1.7311,1.7338,1.7348,1.7332,1.7389,1.7401,1.7452,1.7469,1.7481,1.749,1.7471,1.7545,1.7552,1.7558,1.758,1.7589,1.7482,1.7482,1.7482,1.7481,0,1.727,1.7302,1.7331,1.7357,1.7375,1.7412,1.7412,1.7431,1.7425,1.7427,1.747,1.7483,1.751,1.7522,1.7516,1.7572,1.7562,1.7546,1.7516,1.757,1.759,1.7599,1.7486,1.7485,1.7484,1.7483,0,0,1.7361,1.7382,1.7393,1.7403,1.7422,1.7446,1.7481,1.7507,1.7523,1.7542,1.7569,1.7609,1.7593,1.7608,1.7603,1.7627,1.7679,1.7607,1.7608,1.7618,1.7738,1.7749,1.7759,1.7671,1.7672,1.7674,1.7736,0,1.7427,1.7488,1.7484,1.7541,1.7569,1.7552,1.7582,1.7596,1.76,1.7623,1.7627,1.7654,1.7633,1.7641,1.7664,1.7668,1.7703,1.7664,1.7695,1.7696,1.7689,1.777,1.7782,1.784,1.7744,1.7746,1.7747,0,1.7514,1.7534,1.7594,1.7607,1.7618,1.7645,1.7667,1.7691,1.7706,1.7707,1.7722,1.7713,1.7747,1.7718,1.7763,1.7737,1.7749,1.7753,1.7755,1.7757,1.7723,1.7771,1.7859,1.7867,1.7759,1.7758,1.7757,0,1.757,1.7613,1.7654,1.7663,1.768,1.7699,1.7707,1.7721,1.7736,1.7755,1.7765,1.7788,1.7801,1.7818,1.7815,1.7795,1.7861,1.7832,1.7861,1.7861,1.7874,1.7873,1.7963,1.7886,1.7886,1.7886,1.7885,0,1.7644,1.768,1.7679,1.7704,1.7743,1.7738,1.7777,1.7783,1.7795,1.7819,1.7807,1.783,1.7826,1.7849,1.7847,1.7883,1.789,1.789,1.7889,1.789,1.789,1.7897,1.7892,1.7888,1.7887,1.7887,1.7887,0,1.7714,1.7715,1.7757,1.7769,1.7773,1.7801,1.7811,1.7834,1.7836,1.7867,1.7874,1.7877,1.7903,1.7902,1.7932,1.7931,1.7975,1.797,1.7969,1.7968,1.7996,1.7992,1.8092,1.8103,1.8021,1.8022,1.8022,0,1.776,1.7787,1.7802,1.7817,1.7826,1.7852,1.7866,1.7862,1.7878,1.7897,1.7917,1.7941,1.7961,1.8003,1.8007,1.8029,1.8024,1.8057,1.8027,1.8027,1.8021,1.8019,1.8021,1.8062,1.8063,1.8064,1.8065,0,1.7841,1.7839,1.7862,1.7883,1.7901,1.7919,1.7934,1.7948,1.7945,1.7963,1.7989,1.8004,1.8034,1.8058,1.8079,1.8086,1.8074,1.8074,1.8082,1.8082,1.808,1.8079,1.7983,1.8072,1.8071,1.807,1.807,1.807,1.7899,1.7921,1.7934,1.7959,1.797,1.7984,1.8005,1.801,1.8031,1.8055,1.8051,1.808,1.8093,1.812,1.8129,1.815,1.8138,1.815,1.8152,1.8155,1.8157,1.8078,1.8154,1.8154,1.8154,1.8154,1.8154,0,1.7977,1.7984,1.8007,1.8029,1.8047,1.8035,1.8051,1.8067,1.8093,1.8106,1.8125,1.8154,1.8177,1.8182,1.8204,1.822,1.8215,1.8226,1.8223,1.8225,1.8167,1.8158,1.8229,1.8229,1.8229,1.8229,1.8229,1.8229,1.802,1.8056,1.8056,1.8098,1.8105,1.8132,1.8142,1.8155,1.8165,1.8198,1.8216,1.822,1.823,1.8252,1.8271,1.8272,1.828,1.8292,1.8291,1.8237,1.8229,1.8222,1.8213,1.8295,1.8295,1.8346,1.8347,1.8347]},{"header":{"parameterUnit":"m.s-1","parameterCategory":1,"la1":30.2991,"la2":30.254,"lo1":-89.0895,"lo2":-89.0444,"dy":0.0017,"dx":0.0017,"nx":28,"ny":28,"refTime":"2023-07-27T21:00:00:Z","depth":0,"parameterNumber":3,"parameterNumberName":"V-component_of_WINDS"},"data":[0,0,0,0,0,0,0,0,0,0,0,0,0,0,0,0,0,0,0,0,0,0,0,0,0,0,0,0,0,0,0,0,0,0,0,0,0,0,0,0,0,0,0,0,0,0,0,0,0,0,0,0,0,0,0,0,0,0,1.2552,1.2552,0,1.2485,1.2484,1.2483,1.2426,1.2425,1.2425,1.2424,1.2353,1.2351,1.235,0,0,0,0,0,0,0,0,0,0,0,0,0,1.2628,1.2627,1.2552,1.2551,1.2551,1.2485,1.2484,1.2483,1.2426,1.2425,1.2424,1.2424,1.2353,1.2351,1.235,0,0,0,0,0,0,0,0,0,0,0,0,0,1.2581,1.2626,1.2552,1.2514,1.251,1.2485,1.2484,1.2483,1.2426,1.2425,1.2424,1.2423,1.2353,1.2352,1.235,1.2356,0,0,1.2344,1.2343,0,0,0,0,0,0,0,0,1.2584,1.2578,1.2521,1.2517,1.2512,1.2463,1.2484,1.244,1.2426,1.2458,1.2424,1.2423,1.239,1.2385,1.2374,1.2353,1.235,1.2343,1.2342,1.2341,1.2341,0,0,0,0,0,0,0,1.2587,1.2581,1.2526,1.252,1.2515,1.2499,1.2492,1.2476,1.243,1.2455,1.2451,1.2444,1.2387,1.2376,1.2372,1.2349,1.2343,1.2342,1.234,1.234,1.2327,1.2328,0,0,0,0,0,0,1.2597,1.2584,1.2528,1.2523,1.2547,1.2499,1.249,1.248,1.243,1.2422,1.2445,1.2441,1.238,1.2374,1.2369,1.2373,1.2341,1.234,1.2338,1.2326,1.2327,1.2328,0,0,0,0,0,0,1.2599,1.2592,1.253,1.2553,1.2544,1.2498,1.2487,1.2479,1.2468,1.2422,1.2413,1.2442,1.2379,1.2372,1.236,1.2369,1.2339,1.2337,1.2325,1.2327,1.2328,1.238,0,0,0,0,0,0,1.2601,1.2593,1.2596,1.2553,1.2543,1.2523,1.2488,1.2478,1.2465,1.246,1.2417,1.2409,1.2378,1.2363,1.2358,1.2366,1.2335,1.2324,1.2326,1.2327,1.2377,1.2383,1.2388,0,0,0,0,0,1.2604,1.2614,1.2597,1.259,1.2546,1.2524,1.2518,1.2482,1.2466,1.2468,1.2438,1.2411,1.2369,1.2362,1.2356,1.2364,1.2324,1.2325,1.2327,1.2375,1.2382,1.2388,0,0,0,0,0,0,1.2659,1.2607,1.2588,1.2585,1.2559,1.2514,1.2516,1.2491,1.2469,1.2465,1.2421,1.2412,1.2404,1.2382,1.2375,1.2366,1.2342,1.2343,1.2381,1.2387,1.2392,1.2397,1.2334,0,0,0,0,0,1.2671,1.2658,1.2614,1.2614,1.2603,1.2562,1.2551,1.2525,1.2497,1.2486,1.2455,1.2428,1.2408,1.2396,1.2376,1.2374,1.2363,1.2376,1.2381,1.2386,1.2387,1.2382,1.2387,1.2335,1.2335,1.2335,0,0,1.2695,1.2665,1.266,1.2625,1.2602,1.2589,1.2553,1.2541,1.253,1.2484,1.247,1.2447,1.2413,1.2405,1.24,1.2387,1.2399,1.2388,1.2392,1.2391,1.2384,1.2389,1.2394,1.2336,1.2336,1.2335,0,0,1.2732,1.2709,1.2706,1.2684,1.265,1.2623,1.2622,1.2581,1.2563,1.2549,1.2513,1.2499,1.2467,1.2444,1.2428,1.2455,1.2428,1.2449,1.2477,1.2473,1.2477,1.248,1.2488,1.2492,1.245,1.245,1.245,0,1.2766,1.2746,1.2708,1.2698,1.2683,1.264,1.2636,1.2616,1.2577,1.2567,1.2553,1.2511,1.2485,1.247,1.2477,1.2466,1.2462,1.2454,1.2479,1.2482,1.2485,1.2492,1.2496,1.2453,1.2453,1.2453,1.2452,0,1.2788,1.2775,1.2777,1.274,1.2725,1.2719,1.2679,1.2668,1.2643,1.2616,1.2601,1.2569,1.254,1.2535,1.2511,1.2516,1.2509,1.2488,1.2463,1.2493,1.2499,1.2502,1.2457,1.2456,1.2455,1.2455,0,0,1.2859,1.2801,1.2802,1.2785,1.2744,1.2732,1.2722,1.2695,1.2686,1.266,1.2649,1.2622,1.2602,1.2584,1.2557,1.2553,1.2574,1.2532,1.253,1.254,1.2576,1.2592,1.2596,1.2556,1.2557,1.2557,1.2579,0,1.2888,1.287,1.2835,1.2827,1.2813,1.2771,1.2763,1.2736,1.271,1.2693,1.2664,1.2646,1.2621,1.2609,1.2604,1.2573,1.2581,1.2571,1.2545,1.2544,1.2554,1.26,1.2617,1.2639,1.2581,1.2581,1.2582,0,1.2921,1.2898,1.2889,1.2847,1.284,1.2833,1.2804,1.2789,1.2757,1.2738,1.2718,1.2687,1.2673,1.2651,1.2629,1.2623,1.261,1.2593,1.2593,1.2589,1.2565,1.2596,1.2646,1.2649,1.2585,1.2585,1.2585,0,1.2972,1.2939,1.2928,1.2915,1.2866,1.2862,1.2841,1.2808,1.2793,1.2768,1.2757,1.273,1.2715,1.2694,1.2657,1.2644,1.2639,1.2614,1.2622,1.2623,1.2623,1.2623,1.267,1.2616,1.2616,1.2616,1.2615,0,1.3009,1.3004,1.295,1.2944,1.2937,1.2896,1.289,1.2866,1.2836,1.2823,1.2785,1.2773,1.2725,1.2707,1.2678,1.2664,1.2657,1.2641,1.2633,1.2644,1.2646,1.2635,1.2632,1.2616,1.2616,1.2616,1.2616,0,1.3065,1.3029,1.3014,1.2969,1.2958,1.2955,1.2916,1.2907,1.2879,1.2862,1.2856,1.2811,1.2788,1.2749,1.2714,1.2694,1.2685,1.2672,1.2697,1.2692,1.2702,1.2701,1.2743,1.2746,1.269,1.2691,1.2691,0,1.309,1.3086,1.304,1.3029,1.301,1.2993,1.2978,1.2936,1.2922,1.2884,1.2879,1.2853,1.283,1.2795,1.2758,1.2731,1.2716,1.2733,1.2712,1.2723,1.2715,1.2716,1.2714,1.2738,1.2738,1.2739,1.274,0,1.3139,1.3121,1.3101,1.3075,1.3058,1.3034,1.3009,1.3002,1.2955,1.294,1.2916,1.2898,1.2862,1.2836,1.2804,1.278,1.2752,1.2746,1.2747,1.2758,1.2771,1.2763,1.2709,1.2746,1.2745,1.2745,1.2744,1.2744,1.318,1.3173,1.314,1.3119,1.3095,1.3072,1.3062,1.3032,1.3012,1.298,1.2957,1.2934,1.2899,1.2853,1.2831,1.2812,1.2799,1.2799,1.2799,1.28,1.2804,1.2775,1.2805,1.2805,1.2805,1.2805,1.2805,0,1.3225,1.3202,1.3183,1.3149,1.3131,1.3107,1.3077,1.3064,1.3045,1.3016,1.2994,1.2965,1.2939,1.29,1.2871,1.2863,1.2849,1.2856,1.2856,1.2851,1.2818,1.282,1.2868,1.2868,1.2868,1.2868,1.2868,1.2868,1.3247,1.3235,1.3213,1.3188,1.3164,1.3142,1.3127,1.3105,1.3081,1.3052,1.303,1.3005,1.2972,1.2939,1.2914,1.2903,1.2893,1.2905,1.289,1.2859,1.2853,1.2848,1.285,1.2903,1.2904,1.2924,1.2925,1.2925]}]]